Torna al catalogo

SIMORGH NO. 7 STAGE 2

AttivoLEO
NORAD 58851·ROCKET BODY·🇮🇷 Iran
Questo nome del satellite non è ancora stato confermato da fonti ufficiali.

Lanciato Jan 28, 2024 da Semnan Space Center

Loading…

Prossimi Passaggi (prossime 24 ore)

TLE

AggiornatoSource: Space-Track

Epoca: Sep 14, 2026, 14:57 UTC

1 58851U 24018C   26257.62332787  .00001035  00000-0  13576-3 0  9996
2 58851  58.6845 269.0869 0418493 213.3643 144.0367 14.41425523138183

Traccia SIMORGH NO. 7 STAGE 2 in tempo reale con AllMySat

Download on the App Store